Radiation Dose at Monitoring Post of Fukushima Daini Nuclear Power Station
Date,Time,MP-1(microSv/h),MP-2(microSv/h),MP-3(microSv/h),MP-4(microSv/h),MP-5(microSv/h),MP-6(microSv/h),MP-7(microSv/h),Wind Direction,Wind Velocity(m/s),Rain
2015/12/11,00:00,0.462,0.273,0.491,0.447,0.425,0.227,0.199,south-southeast,3.4,Yes
2015/12/11,00:10,0.463,0.271,0.494,0.445,0.423,0.225,0.199,southeast,2.1,Yes
2015/12/11,00:20,0.464,0.275,0.490,0.447,0.425,0.227,0.199,southeast,3.1,Yes
2015/12/11,00:30,0.463,0.273,0.491,0.445,0.425,0.227,0.199,southeast,3.0,Yes
2015/12/11,00:40,0.464,0.272,0.494,0.444,0.423,0.226,0.199,east-southeast,1.5,Yes
2015/12/11,00:50,0.463,0.274,0.490,0.447,0.424,0.226,0.199,southeast,1.2,Yes
2015/12/11,01:00,0.463,0.274,0.492,0.444,0.425,0.225,0.198,east,0.8,Yes
2015/12/11,01:10,0.462,0.273,0.491,0.444,0.423,0.226,0.199,northeast,0.6,Yes
2015/12/11,01:20,0.461,0.273,0.489,0.444,0.424,0.225,0.199,north-northeast,0.6,Yes
2015/12/11,01:30,0.463,0.272,0.493,0.444,0.422,0.225,0.199,northeast,1.1,Yes
2015/12/11,01:40,0.463,0.273,0.490,0.445,0.422,0.227,0.199,east-northeast,0.8,Yes
2015/12/11,01:50,0.459,0.273,0.490,0.443,0.424,0.224,0.199,-,CALM,Yes
2015/12/11,02:00,0.461,0.271,0.490,0.441,0.421,0.225,0.198,north-northeast,2.0,Yes
2015/12/11,02:10,0.459,0.272,0.486,0.444,0.422,0.224,0.198,north-northeast,2.0,Yes
2015/12/11,02:20,0.460,0.271,0.490,0.441,0.422,0.225,0.196,east-northeast,2.4,Yes
2015/12/11,02:30,0.461,0.270,0.488,0.444,0.421,0.224,0.197,east-northeast,1.2,Yes
2015/12/11,02:40,0.459,0.272,0.486,0.441,0.421,0.225,0.197,north-northeast,1.3,Yes
2015/12/11,02:50,0.460,0.271,0.488,0.440,0.421,0.224,0.197,north-northeast,1.7,Yes
2015/12/11,03:00,0.459,0.270,0.485,0.443,0.421,0.225,0.197,north,3.0,Yes
2015/12/11,03:10,0.458,0.272,0.486,0.439,0.423,0.224,0.197,north,3.8,No
2015/12/11,03:20,0.459,0.270,0.487,0.440,0.422,0.223,0.196,north,4.0,Yes
2015/12/11,03:30,0.457,0.272,0.484,0.440,0.420,0.224,0.194,north,4.3,Yes
2015/12/11,03:40,0.457,0.271,0.488,0.438,0.421,0.223,0.195,north,4.7,Yes
2015/12/11,03:50,0.459,0.270,0.482,0.437,0.418,0.223,0.195,north,4.3,Yes
2015/12/11,04:00,0.453,0.270,0.481,0.437,0.419,0.223,0.195,north,4.3,Yes
2015/12/11,04:10,0.457,0.270,0.484,0.435,0.420,0.221,0.194,north,4.6,Yes
2015/12/11,04:20,0.453,0.270,0.477,0.435,0.417,0.223,0.193,north,4.7,Yes
2015/12/11,04:30,0.453,0.270,0.478,0.434,0.418,0.222,0.194,north,4.4,Yes
2015/12/11,04:40,0.457,0.269,0.478,0.432,0.419,0.222,0.194,north,5.2,Yes
2015/12/11,04:50,0.451,0.268,0.473,0.432,0.417,0.222,0.195,north-northwest,5.1,Yes
2015/12/11,05:00,0.452,0.270,0.475,0.429,0.415,0.222,0.194,north-northwest,5.8,Yes
2015/12/11,05:10,0.454,0.270,0.474,0.430,0.418,0.222,0.194,north,5.8,Yes
2015/12/11,05:20,0.452,0.270,0.475,0.432,0.416,0.223,0.196,north-northwest,6.2,Yes
2015/12/11,05:30,0.451,0.271,0.476,0.430,0.418,0.222,0.194,north-northwest,6.7,Yes
2015/12/11,05:40,0.453,0.269,0.472,0.429,0.418,0.222,0.193,north-northwest,7.0,Yes
2015/12/11,05:50,0.449,0.268,0.472,0.430,0.416,0.221,0.193,north-northwest,6.3,Yes
2015/12/11,06:00,0.451,0.268,0.471,0.425,0.415,0.220,0.191,north-northwest,6.5,Yes
2015/12/11,06:10,0.448,0.266,0.469,0.426,0.415,0.221,0.191,north,5.7,Yes
2015/12/11,06:20,0.446,0.266,0.467,0.424,0.413,0.220,0.193,north,6.1,Yes
2015/12/11,06:30,0.447,0.267,0.470,0.423,0.415,0.218,0.190,north,5.5,Yes
2015/12/11,06:40,0.446,0.265,0.464,0.422,0.414,0.219,0.190,north,6.7,Yes
2015/12/11,06:50,0.443,0.266,0.464,0.419,0.412,0.217,0.190,north,7.1,Yes
2015/12/11,07:00,0.445,0.267,0.466,0.419,0.414,0.218,0.191,north-northwest,7.7,Yes
2015/12/11,07:10,0.442,0.267,0.465,0.422,0.415,0.219,0.191,north-northwest,8.1,Yes
2015/12/11,07:20,0.443,0.266,0.466,0.418,0.411,0.219,0.190,north-northwest,10.0,Yes
2015/12/11,07:30,0.442,0.266,0.464,0.416,0.414,0.216,0.190,north-northwest,9.2,Yes
2015/12/11,07:40,0.441,0.266,0.463,0.422,0.414,0.217,0.192,north-northwest,8.9,Yes
2015/12/11,07:50,0.444,0.267,0.468,0.419,0.415,0.219,0.191,north-northwest,7.7,Yes
2015/12/11,08:00,0.443,0.266,0.466,0.424,0.414,0.217,0.191,north-northwest,7.6,Yes
2015/12/11,08:10,0.443,0.265,0.466,0.421,0.415,0.216,0.190,north,8.4,Yes
2015/12/11,08:20,0.442,0.266,0.465,0.417,0.413,0.215,0.188,north-northwest,7.6,Yes
2015/12/11,08:30,0.440,0.264,0.462,0.416,0.413,0.216,0.189,north-northwest,7.7,Yes
2015/12/11,08:40,0.439,0.265,0.462,0.418,0.413,0.215,0.188,north-northwest,8.6,Yes
2015/12/11,08:50,0.438,0.264,0.461,0.414,0.411,0.214,0.188,north,9.2,Yes
2015/12/11,09:00,0.437,0.263,0.457,0.415,0.410,0.214,0.187,north,8.1,Yes
2015/12/11,09:10,0.439,0.263,0.461,0.414,0.411,0.215,0.187,north-northwest,6.8,Yes
2015/12/11,09:20,0.438,0.266,0.458,0.414,0.412,0.214,0.188,north-northwest,8.1,Yes
2015/12/11,09:30,0.436,0.264,0.458,0.412,0.411,0.214,0.187,north,7.8,Yes
2015/12/11,09:40,0.437,0.264,0.459,0.412,0.410,0.213,0.187,north-northwest,5.9,Yes
2015/12/11,09:50,0.435,0.264,0.457,0.409,0.409,0.214,0.187,north-northwest,5.7,Yes
2015/12/11,10:00,0.436,0.264,0.456,0.414,0.411,0.213,0.187,north,4.7,Yes
2015/12/11,10:10,0.437,0.264,0.459,0.410,0.411,0.215,0.186,north-northwest,5.3,Yes
2015/12/11,10:20,0.434,0.265,0.455,0.410,0.409,0.213,0.186,north,4.0,Yes
2015/12/11,10:30,0.434,0.261,0.454,0.406,0.407,0.213,0.187,east-southeast,3.6,Yes
2015/12/11,10:40,0.433,0.265,0.453,0.407,0.408,0.212,0.187,east-northeast,3.0,Yes
2015/12/11,10:50,0.429,0.263,0.450,0.407,0.406,0.212,0.186,north,4.0,Yes
2015/12/11,11:00,0.431,0.261,0.449,0.405,0.404,0.213,0.186,north,3.9,Yes
2015/12/11,11:10,0.427,0.262,0.445,0.405,0.404,0.210,0.184,north-northwest,4.2,Yes
2015/12/11,11:20,0.431,0.262,0.449,0.411,0.406,0.210,0.184,north-northwest,3.6,Yes
2015/12/11,11:30,0.431,0.262,0.450,0.409,0.404,0.209,0.184,north-northwest,6.0,Yes
2015/12/11,11:40,0.428,0.262,0.447,0.407,0.406,0.207,0.184,north-northwest,5.9,Yes
2015/12/11,11:50,0.432,0.261,0.455,0.411,0.407,0.209,0.185,north-northwest,4.2,Yes
2015/12/11,12:00,0.433,0.262,0.454,0.413,0.408,0.209,0.183,north,3.6,Yes
2015/12/11,12:10,0.431,0.260,0.452,0.413,0.409,0.208,0.185,north,3.5,Yes
2015/12/11,12:20,0.432,0.261,0.455,0.412,0.410,0.209,0.184,north-northeast,1.4,Yes
2015/12/11,12:30,0.433,0.262,0.455,0.415,0.411,0.209,0.185,southeast,0.8,Yes
2015/12/11,12:40,0.437,0.261,0.460,0.417,0.412,0.209,0.186,south-southeast,2.2,Yes
2015/12/11,12:50,0.433,0.263,0.457,0.417,0.410,0.209,0.185,-,CALM,Yes
2015/12/11,13:00,0.436,0.262,0.461,0.422,0.414,0.209,0.185,north,4.8,Yes
2015/12/11,13:10,0.435,0.260,0.460,0.420,0.412,0.210,0.184,northeast,2.6,Yes
2015/12/11,13:20,0.436,0.263,0.461,0.421,0.413,0.209,0.185,north-northwest,3.3,No
2015/12/11,13:30,0.437,0.261,0.462,0.420,0.412,0.209,0.184,north-northwest,6.3,No
2015/12/11,13:40,0.436,0.260,0.459,0.420,0.412,0.208,0.184,north-northwest,8.1,No
2015/12/11,13:50,0.437,0.260,0.462,0.422,0.413,0.208,0.184,north-northwest,8.2,No
2015/12/11,14:00,0.434,0.261,0.461,0.419,0.412,0.209,0.183,north,7.1,No
2015/12/11,14:10,0.438,0.260,0.465,0.421,0.413,0.208,0.185,north,8.9,No
2015/12/11,14:20,0.437,0.261,0.460,0.419,0.413,0.210,0.184,north,8.1,No
2015/12/11,14:30,0.437,0.261,0.463,0.421,0.412,0.210,0.183,north,8.1,No
2015/12/11,14:40,0.440,0.261,0.464,0.423,0.414,0.210,0.184,north,8.1,No
2015/12/11,14:50,0.437,0.261,0.462,0.421,0.412,0.210,0.185,north,7.0,No
2015/12/11,15:00,0.440,0.261,0.465,0.425,0.415,0.210,0.184,north,7.4,No
2015/12/11,15:10,0.437,0.262,0.463,0.421,0.412,0.211,0.184,north,8.5,No
2015/12/11,15:20,0.441,0.262,0.466,0.424,0.413,0.210,0.183,north,7.6,No
2015/12/11,15:30,0.437,0.261,0.462,0.420,0.415,0.210,0.185,north,8.2,No
2015/12/11,15:40,0.441,0.262,0.467,0.424,0.413,0.210,0.184,north-northwest,7.4,No
2015/12/11,15:50,0.440,0.261,0.463,0.423,0.415,0.212,0.184,north,12.3,Yes
2015/12/11,16:00,0.441,0.263,0.463,0.424,0.414,0.211,0.184,north-northwest,12.2,Yes
2015/12/11,16:10,0.443,0.263,0.464,0.425,0.415,0.212,0.185,north-northwest,15.0,Yes
2015/12/11,16:20,0.441,0.262,0.465,0.422,0.414,0.213,0.186,north-northwest,13.1,Yes
2015/12/11,16:30,0.444,0.264,0.467,0.425,0.414,0.212,0.184,north,14.0,Yes
2015/12/11,16:40,0.442,0.263,0.464,0.425,0.416,0.214,0.185,north,11.8,Yes
2015/12/11,16:50,0.445,0.264,0.468,0.425,0.416,0.213,0.186,north,13.1,Yes
2015/12/11,17:00,0.445,0.263,0.466,0.425,0.418,0.214,0.186,north,12.5,Yes
2015/12/11,17:10,0.441,0.263,0.467,0.423,0.414,0.214,0.186,north,12.0,No
2015/12/11,17:20,0.446,0.263,0.468,0.427,0.415,0.215,0.186,north,12.9,No
2015/12/11,17:30,0.443,0.263,0.464,0.424,0.417,0.214,0.186,north,12.3,No
2015/12/11,17:40,0.443,0.265,0.468,0.425,0.415,0.213,0.186,north,12.9,No
2015/12/11,17:50,0.443,0.264,0.466,0.423,0.416,0.213,0.186,north,11.4,No
2015/12/11,18:00,0.443,0.263,0.469,0.424,0.416,0.214,0.184,north,10.7,No
2015/12/11,18:10,0.444,0.264,0.465,0.425,0.414,0.212,0.185,north,9.6,No
2015/12/11,18:20,0.442,0.262,0.466,0.423,0.416,0.214,0.185,north,8.9,No
2015/12/11,18:30,0.445,0.262,0.468,0.426,0.414,0.213,0.184,north,9.0,No
2015/12/11,18:40,0.443,0.262,0.465,0.425,0.414,0.213,0.185,north,11.1,No
2015/12/11,18:50,0.443,0.263,0.470,0.425,0.414,0.213,0.185,north,10.0,No
2015/12/11,19:00,0.444,0.264,0.466,0.425,0.412,0.213,0.185,north,11.2,No
2015/12/11,19:10,0.441,0.262,0.466,0.424,0.414,0.212,0.185,north,9.8,No
2015/12/11,19:20,0.443,0.263,0.467,0.427,0.414,0.213,0.185,north,8.2,No
2015/12/11,19:30,0.442,0.263,0.465,0.424,0.414,0.213,0.185,north,10.0,Yes
2015/12/11,19:40,0.443,0.262,0.469,0.425,0.415,0.212,0.185,north,10.0,No
2015/12/11,19:50,0.444,0.263,0.465,0.424,0.414,0.213,0.185,north,9.2,No
2015/12/11,20:00,0.443,0.262,0.467,0.424,0.415,0.213,0.184,north,9.5,No
2015/12/11,20:10,0.445,0.263,0.467,0.427,0.414,0.213,0.185,north,11.4,No
2015/12/11,20:20,0.442,0.263,0.465,0.423,0.413,0.212,0.186,north,11.1,Yes
2015/12/11,20:30,0.446,0.264,0.469,0.426,0.416,0.214,0.186,north,13.3,Yes
2015/12/11,20:40,0.444,0.265,0.466,0.427,0.416,0.216,0.187,north,10.9,Yes
2015/12/11,20:50,0.446,0.266,0.470,0.427,0.416,0.215,0.188,north,10.1,No
2015/12/11,21:00,0.448,0.265,0.469,0.428,0.416,0.215,0.186,north,9.0,No
2015/12/11,21:10,0.444,0.265,0.468,0.424,0.415,0.216,0.187,north,9.0,No
2015/12/11,21:20,0.447,0.265,0.469,0.428,0.416,0.215,0.187,north,10.9,No
2015/12/11,21:30,0.446,0.263,0.466,0.426,0.413,0.215,0.187,north,8.8,No
2015/12/11,21:40,0.444,0.265,0.471,0.424,0.415,0.214,0.186,north,8.2,No
2015/12/11,21:50,0.444,0.265,0.468,0.427,0.415,0.214,0.187,north,9.0,No
2015/12/11,22:00,0.444,0.263,0.467,0.423,0.414,0.214,0.185,north,9.5,No
2015/12/11,22:10,0.447,0.265,0.468,0.428,0.415,0.213,0.186,north,8.9,No
2015/12/11,22:20,0.445,0.263,0.465,0.425,0.415,0.215,0.185,north,7.8,No
2015/12/11,22:30,0.447,0.263,0.470,0.426,0.414,0.214,0.185,north,8.1,No
2015/12/11,22:40,0.445,0.264,0.466,0.427,0.417,0.213,0.185,north,8.8,No
2015/12/11,22:50,0.444,0.263,0.467,0.424,0.414,0.214,0.186,north,8.2,No
2015/12/11,23:00,0.446,0.265,0.470,0.427,0.416,0.214,0.185,north,6.2,No
2015/12/11,23:10,0.442,0.263,0.466,0.424,0.415,0.215,0.186,north,5.9,No
2015/12/11,23:20,0.446,0.263,0.469,0.426,0.414,0.213,0.185,north,7.1,No
2015/12/11,23:30,0.443,0.263,0.466,0.426,0.415,0.213,0.185,north,7.1,No
2015/12/11,23:40,0.444,0.261,0.468,0.425,0.413,0.213,0.185,north,6.8,No
2015/12/11,23:50,0.446,0.264,0.468,0.427,0.414,0.214,0.185,north,6.7,No
